Location: San Gennaro Vesuviano
(40.8833°N, 14.5333°E)
Time: 22:14:40
(UTC+00:00)

NOSS 3-1 (C) - Pass Details

Date: 22 April 2021
Orbit: 732 x 1476 km, 63.4° (Epoch: 18 April)

Event Time Altitude Azimuth Distance (km) Brightness Sun altitude
Rises 21:09:20 0° 325° (NW) 3,988 7.9 -30.8°
Reaches altitude 10° 21:11:53 10° 325° (NW) 3,123 7.0 -31.0°
Maximum altitude 21:19:36 89° 52° (NE) 1,341 4.0 -31.8°
Enters shadow 21:20:23 77° 141° (SE) 1,384 4.0 -31.8°
